Tracking 19644 objects as of 25-Apr-2019
HD Live streaming from Space Station
objects crossing your sky now

INSAT 2A

Track INSAT 2A now!
INSAT 2A is classified as:


NORAD ID: 22027
Int'l Code: 1992-041A
Perigee: 35,778.7 km
Apogee: 35,835.3 km
Inclination: 14.8 °
Period: 1,436.8 minutes
Semi major axis: 42178 km
RCS: 1.9952 m2 (large)
Launch date: July 9, 1992
Source: India (IND)
Launch site: FRENCH GUIANA (FRGUI)
aabbcc
Your satellite tracking list
Your tracking list is empty




NASA's NSSDC Master Catalog

Two Line Element Set (TLE):
1 22027U 92041A   19114.43027889 -.00000009 +00000-0 +00000-0 0  9996
2 22027 014.7987 013.4327 0006709 272.5176 259.0337 01.00224355097897
Source of the keplerian elements: AFSPC